EW1296 Weather Reports


Display with metric or nautical units.
time (UTC)temp
F
wind
direction
speed
MPH
gust
MPH
rain 1hr
in
rain 24hr
in
rain mn
in
humidity
%
barometer
mb
20260508222517 63 338 1.0 4.0 0.00 0.00 0.00 46 1011.4
20260508222017 63 338 3.0 8.0 0.00 0.00 0.00 45 1011.4
20260508221517 63 0 2.0 8.0 0.00 0.00 0.00 44 1011.4
20260508221017 64 338 2.0 6.0 0.00 0.00 0.00 43 1011.4
20260508220517 64 338 2.0 8.0 0.00 0.00 0.00 43 1011.3
20260508220018 64 23 2.0 9.0 0.00 0.00 0.00 43 1011.2
20260508215516 64 315 4.0 9.0 0.00 0.00 0.00 41 1011.2
20260508215017 65 248 4.0 11.0 0.00 0.00 0.00 41 1011.3
20260508214516 65 315 4.0 11.0 0.00 0.00 0.00 40 1011.2
20260508214017 66 315 4.0 10.0 0.00 0.00 0.00 41 1011.3
20260508213518 65 315 4.0 10.0 0.00 0.00 0.00 40 1011.3
20260508213017 65 315 3.0 8.0 0.00 0.00 0.00 40 1011.3
20260508212517 65 315 5.0 11.0 0.00 0.00 0.00 39 1011.4
20260508212017 65 270 5.0 13.0 0.00 0.00 0.00 40 1011.4
20260508211517 64 315 5.0 12.0 0.00 0.00 0.00 40 1011.3
20260508211057 63 270 9.0 15.0 0.00 0.00 0.00 40 1011.6
20260508210518 64 270 6.0 14.0 0.00 0.00 0.00 40 1011.6
20260508210017 64 270 7.0 14.0 0.00 0.00 0.00 39 1011.6
20260508205517 64 248 6.0 14.0 0.00 0.00 0.00 39 1011.6
20260508205017 64 270 7.0 13.0 0.00 0.00 0.00 39 1011.4
20260508204538 63 270 8.0 16.0 0.00 0.00 0.00 39 1011.5
20260508204056 64 270 10.0 19.0 0.00 0.00 0.00 38 1011.5
20260508203517 64 270 8.0 17.0 0.00 0.00 0.00 38 1011.6
20260508203017 64 270 6.0 13.0 0.00 0.00 0.00 38 1011.5
20260508202537 64 270 9.0 16.0 0.00 0.00 0.00 38 1011.5
20260508202017 64 270 9.0 18.0 0.00 0.00 0.00 37 1011.3
20260508201517 64 248 9.0 20.0 0.00 0.00 0.00 37 1011.2
20260508201018 65 248 8.0 15.0 0.00 0.00 0.00 37 1011.3
20260508200518 65 270 9.0 14.0 0.00 0.00 0.00 36 1011.3
20260508200057 65 270 8.0 16.0 0.00 0.00 0.00 36 1011.3
20260508195537 66 248 8.0 14.0 0.00 0.00 0.00 36 1011.2
20260508195036 66 270 7.0 13.0 0.00 0.00 0.00 36 1011.1
20260508194517 66 270 6.0 12.0 0.00 0.00 0.00 36 1011.1
20260508194016 66 270 8.0 15.0 0.00 0.00 0.00 36 1011.1
20260508193516 66 315 6.0 14.0 0.00 0.00 0.00 35 1011.1
20260508193037 66 293 8.0 16.0 0.00 0.00 0.00 35 1011.0
20260508192516 65 270 10.0 15.0 0.00 0.00 0.00 35 1011.3
20260508192016 65 270 8.0 17.0 0.00 0.00 0.00 36 1011.5
20260508191517 65 270 6.0 12.0 0.00 0.00 0.00 36 1011.5
20260508191036 65 248 7.0 20.0 0.00 0.00 0.00 36 1011.6
20260508190516 64 270 7.0 14.0 0.00 0.00 0.00 37 1011.5
20260508190016 64 270 7.0 15.0 0.00 0.00 0.00 37 1011.7
20260508185537 64 270 7.0 15.0 0.00 0.00 0.00 37 1011.7
20260508185017 64 248 8.0 16.0 0.00 0.00 0.00 36 1011.7
20260508184517 64 248 11.0 19.0 0.00 0.00 0.00 35 1011.8
20260508184016 65 248 9.0 16.0 0.00 0.00 0.00 35 1011.8
20260508183516 66 248 7.0 14.0 0.00 0.00 0.00 35 1011.8
20260508183036 66 270 7.0 14.0 0.00 0.00 0.00 35 1011.7
20260508182518 65 248 8.0 15.0 0.00 0.00 0.00 36 1011.7
20260508182016 65 270 7.0 15.0 0.00 0.00 0.00 36 1011.7
20260508181516 65 248 10.0 18.0 0.00 0.00 0.00 36 1011.8
20260508181017 65 270 10.0 16.0 0.00 0.00 0.00 35 1012.1
20260508180516 64 248 10.0 16.0 0.00 0.00 0.00 36 1011.9
20260508180016 64 270 9.0 16.0 0.00 0.00 0.00 37 1012.0
20260508175516 64 270 10.0 20.0 0.00 0.00 0.00 37 1012.1
20260508175017 64 270 10.0 18.0 0.00 0.00 0.00 37 1012.1
20260508174518 64 270 8.0 15.0 0.00 0.00 0.00 37 1012.2
20260508174016 64 270 8.0 14.0 0.00 0.00 0.00 37 1012.2
20260508173516 64 270 10.0 18.0 0.00 0.00 0.00 36 1012.2
20260508173038 64 270 9.0 15.0 0.00 0.00 0.00 37 1012.1
20260508172516 63 270 10.0 21.0 0.00 0.00 0.00 38 1012.1
20260508172016 63 270 11.0 20.0 0.00 0.00 0.00 38 1012.1
20260508171517 64 270 11.0 18.0 0.00 0.00 0.00 37 1012.4
20260508171016 64 248 8.0 16.0 0.00 0.00 0.00 37 1012.2
20260508170516 63 270 9.0 16.0 0.00 0.00 0.00 38 1012.2
20260508170041 63 248 8.0 15.0 0.00 0.00 0.00 38 1012.2
20260508165516 63 270 9.0 16.0 0.00 0.00 0.00 37 1012.4
20260508165016 63 270 9.0 14.0 0.00 0.00 0.00 37 1012.5
20260508164517 63 248 8.0 13.0 0.00 0.00 0.00 37 1012.5
20260508164036 63 270 10.0 18.0 0.00 0.00 0.00 36 1012.7
20260508163516 62 270 11.0 20.0 0.00 0.00 0.00 36 1012.6
20260508163038 63 270 10.0 19.0 0.00 0.00 0.00 36 1012.6
20260508162516 63 270 11.0 17.0 0.00 0.00 0.00 36 1012.5
20260508162017 63 248 10.0 25.0 0.00 0.00 0.00 36 1012.7
20260508161516 63 248 11.0 24.0 0.00 0.00 0.00 36 1012.7
20260508161016 63 248 9.0 16.0 0.00 0.00 0.00 37 1012.8
20260508160517 61 270 9.0 15.0 0.00 0.00 0.00 37 1012.7
20260508160016 61 270 8.0 15.0 0.00 0.00 0.00 37 1012.7
20260508155617 62 270 10.0 18.0 0.00 0.00 0.00 36 1012.9
20260508155016 62 270 9.0 16.0 0.00 0.00 0.00 38 1012.9
20260508154557 63 270 8.0 15.0 0.00 0.00 0.00 37 1012.8
20260508154018 63 248 8.0 17.0 0.00 0.00 0.00 37 1012.8
20260508153516 62 270 9.0 20.0 0.00 0.00 0.00 37 1012.9
20260508153016 62 248 7.0 16.0 0.00 0.00 0.00 38 1012.9
20260508152516 62 225 6.0 12.0 0.00 0.00 0.00 38 1012.8
20260508152016 62 225 3.0 10.0 0.00 0.00 0.00 37 1012.8
20260508151538 62 338 5.0 10.0 0.00 0.00 0.00 36 1012.8
20260508151016 62 315 4.0 11.0 0.00 0.00 0.00 36 1012.8
20260508150516 62 270 4.0 12.0 0.00 0.00 0.00 37 1012.8
20260508150017 61 270 5.0 14.0 0.00 0.00 0.00 37 1012.8
20260508145517 61 293 3.0 8.0 0.00 0.00 0.00 38 1012.8
20260508145016 61 270 5.0 10.0 0.00 0.00 0.00 38 1012.8
20260508144516 61 270 4.0 12.0 0.00 0.00 0.00 40 1012.9
20260508144056 60 270 5.0 11.0 0.00 0.00 0.00 41 1012.9
20260508143517 60 270 6.0 11.0 0.00 0.00 0.00 40 1013.1
20260508143017 60 315 4.0 10.0 0.00 0.00 0.00 43 1013.1
20260508142518 60 315 5.0 11.0 0.00 0.00 0.00 42 1013.0
20260508142016 60 248 4.0 10.0 0.00 0.00 0.00 45 1013.1
20260508141536 59 315 4.0 9.0 0.00 0.00 0.00 44 1013.1
20260508141016 59 270 4.0 9.0 0.00 0.00 0.00 48 1013.2
20260508140517 59 338 4.0 9.0 0.00 0.00 0.00 48 1013.1
20260508140016 59 248 4.0 12.0 0.00 0.00 0.00 48 1013.2
20260508135516 58 270 6.0 13.0 0.00 0.00 0.00 48 1013.3
20260508135016 59 270 6.0 13.0 0.00 0.00 0.00 48 1013.3
20260508134536 59 270 5.0 9.0 0.00 0.00 0.00 50 1013.2
20260508134016 58 248 5.0 10.0 0.00 0.00 0.00 51 1013.2
20260508133516 58 315 5.0 11.0 0.00 0.00 0.00 51 1013.2
20260508133016 57 315 4.0 10.0 0.00 0.00 0.00 52 1013.3
20260508132516 57 293 5.0 9.0 0.00 0.00 0.00 52 1013.3
20260508132016 56 315 4.0 11.0 0.00 0.00 0.00 54 1013.3
20260508131516 56 270 5.0 10.0 0.00 0.00 0.00 55 1013.2
20260508131016 56 315 6.0 11.0 0.00 0.00 0.00 55 1013.2
20260508130516 56 315 5.0 9.0 0.00 0.00 0.00 56 1013.2
20260508130017 56 270 6.0 13.0 0.00 0.00 0.00 57 1013.1
20260508125518 56 315 5.0 11.0 0.00 0.00 0.00 57 1013.1
20260508125016 55 315 4.0 11.0 0.00 0.00 0.00 57 1013.2
20260508124516 55 248 5.0 15.0 0.00 0.00 0.00 58 1013.1
20260508124016 55 315 3.0 9.0 0.00 0.00 0.00 59 1013.1
20260508123516 55 315 5.0 11.0 0.00 0.00 0.00 59 1013.1
20260508123036 55 248 4.0 9.0 0.00 0.00 0.00 60 1013.2
20260508122516 54 270 6.0 10.0 0.00 0.00 0.00 60 1013.3
20260508122015 54 270 5.0 11.0 0.00 0.00 0.00 62 1013.3
20260508121516 54 293 5.0 13.0 0.00 0.00 0.00 63 1013.4
20260508121017 54 293 4.0 10.0 0.00 0.00 0.00 65 1013.5
20260508120517 53 248 6.0 14.0 0.00 0.00 0.00 65 1013.5
20260508120017 53 270 6.0 11.0 0.00 0.00 0.00 66 1013.4
20260508115516 53 270 5.0 12.0 0.00 0.00 0.00 67 1013.4
20260508115036 53 270 4.0 8.0 0.00 0.00 0.00 68 1013.2
20260508114516 53 248 5.0 10.0 0.00 0.00 0.00 68 1013.2
20260508114017 52 270 3.0 8.0 0.00 0.00 0.00 68 1013.2
20260508113516 52 270 5.0 8.0 0.00 0.00 0.00 68 1013.2
20260508113016 52 270 5.0 9.0 0.00 0.00 0.00 69 1013.1
20260508112516 52 315 4.0 7.0 0.00 0.00 0.00 69 1013.1
20260508112016 52 270 4.0 7.0 0.00 0.00 0.00 70 1013.1
20260508111516 52 248 3.0 6.0 0.00 0.00 0.00 70 1013.1
20260508111016 52 248 3.0 9.0 0.00 0.00 0.00 70 1013.0
20260508110516 51 248 2.0 5.0 0.00 0.00 0.00 71 1012.9
20260508110016 51 270 2.0 4.0 0.00 0.00 0.00 72 1012.8
20260508105535 51 293 3.0 6.0 0.00 0.00 0.00 72 1012.8
20260508105016 51 248 3.0 8.0 0.00 0.00 0.00 73 1012.7
20260508104516 50 315 1.0 3.0 0.00 0.00 0.00 73 1012.5
20260508104017 50 293 1.0 2.0 0.00 0.00 0.00 73 1012.5
20260508103515 50 0 1.0 3.0 0.00 0.00 0.00 73 1012.5
20260508103016 50 293 2.0 4.0 0.00 0.00 0.00 73 1012.4
20260508102516 50 315 2.0 5.0 0.00 0.00 0.00 73 1012.5
20260508102036 50 315 3.0 5.0 0.00 0.00 0.00 73 1012.4
20260508101537 50 315 3.0 7.0 0.00 0.00 0.00 73 1012.4
20260508101017 50 315 3.0 8.0 0.00 0.00 0.00 73 1012.4
20260508100517 50 315 1.0 4.0 0.00 0.00 0.00 73 1012.3
20260508100016 50 315 2.0 8.0 0.00 0.00 0.00 73 1012.3
20260508095516 50 315 3.0 8.0 0.00 0.00 0.00 72 1012.3
20260508095016 50 315 3.0 5.0 0.00 0.00 0.00 72 1012.2
20260508094536 50 315 2.0 7.0 0.00 0.00 0.00 72 1012.1
20260508094017 50 293 2.0 4.0 0.00 0.00 0.00 72 1012.2
20260508093516 50 338 3.0 6.0 0.00 0.00 0.00 72 1012.1
20260508093016 50 315 3.0 7.0 0.00 0.00 0.00 72 1012.1
20260508092515 50 315 3.0 5.0 0.00 0.00 0.00 72 1012.0
20260508092037 50 315 1.0 4.0 0.00 0.00 0.00 72 1011.9
20260508091515 50 45 1.0 4.0 0.00 0.00 0.00 72 1011.5
20260508091015 50 315 2.0 4.0 0.00 0.00 0.00 72 1011.7
20260508090515 50 338 3.0 10.0 0.00 0.00 0.00 71 1011.7
20260508090015 50 315 4.0 10.0 0.00 0.01 0.00 72 1011.7
20260508085515 50 338 3.0 10.0 0.00 0.01 0.00 72 1011.8
20260508085016 50 338 3.0 8.0 0.00 0.01 0.00 71 1011.7
20260508084516 50 338 3.0 8.0 0.00 0.01 0.00 71 1011.7
20260508084017 50 0 3.0 10.0 0.00 0.01 0.00 71 1011.6
20260508083515 50 315 2.0 8.0 0.00 0.01 0.00 70 1011.7
20260508083015 50 293 3.0 8.0 0.00 0.01 0.00 70 1011.8
20260508082517 50 315 5.0 10.0 0.00 0.01 0.00 70 1011.8
20260508082015 50 315 4.0 9.0 0.00 0.01 0.00 69 1011.7
20260508081515 51 315 4.0 11.0 0.00 0.01 0.00 69 1011.6
20260508081015 51 338 5.0 12.0 0.00 0.01 0.00 68 1011.5
20260508080517 51 338 5.0 15.0 0.00 0.01 0.00 66 1011.2
20260508080016 51 338 4.0 10.0 0.00 0.01 0.00 64 1011.1
20260508075515 51 338 4.0 12.0 0.00 0.01 0.00 62 1010.9
20260508075036 52 0 4.0 12.0 0.00 0.01 0.00 61 1010.8
20260508074515 52 0 4.0 12.0 0.00 0.01 0.00 61 1010.7
20260508074015 52 45 4.0 10.0 0.00 0.01 0.00 59 1010.7
20260508073516 52 0 2.0 6.0 0.00 0.01 0.00 59 1010.7
20260508073015 52 0 4.0 12.0 0.00 0.02 0.00 59 1010.7
20260508072515 52 23 3.0 10.0 0.00 0.02 0.00 59 1010.7
20260508072017 53 338 3.0 10.0 0.00 0.02 0.00 60 1010.7
20260508071517 53 0 3.0 10.0 0.00 0.02 0.00 60 1010.7
20260508071016 53 338 4.0 11.0 0.00 0.02 0.00 60 1010.6
20260508070517 53 45 3.0 9.0 0.00 0.02 0.00 60 1010.6
20260508070017 53 0 4.0 11.0 0.00 0.02 0.00 60 1010.7
20260508065515 53 45 4.0 13.0 0.00 0.02 0.00 62 1010.9
20260508065017 53 338 4.0 13.0 0.00 0.03 0.00 62 1010.9
20260508064517 54 338 5.0 15.0 0.00 0.03 0.00 62 1011.0
20260508064018 54 338 4.0 12.0 0.00 0.03 0.00 62 1011.0
20260508063517 54 338 5.0 12.0 0.00 0.04 0.00 62 1011.0
20260508063017 54 0 6.0 14.0 0.00 0.05 0.00 62 1010.9
20260508062517 54 315 9.0 17.0 0.00 0.06 0.00 62 1010.8
20260508062037 54 315 7.0 14.0 0.00 0.08 0.00 67 1010.9
20260508061517 55 315 5.0 9.0 0.00 0.09 0.00 75 1010.7
20260508061017 55 293 3.0 8.0 0.00 0.10 0.00 77 1010.6
20260508060518 55 270 5.0 11.0 0.00 0.11 0.00 77 1010.5
20260508060019 55 270 4.0 11.0 0.00 0.12 0.00 77 1010.5
20260508055517 54 293 3.0 6.0 0.00 0.14 0.00 77 1010.0
20260508055019 54 293 1.0 3.0 0.00 0.16 0.00 76 1009.6
20260508054518 54 0.0 1.0 0.00 0.16 0.00 76 1009.4
20260508054017 54 0.0 1.0 0.00 0.16 0.00 76 1009.3
20260508053517 54 270 2.0 5.0 0.00 0.16 0.00 76 1009.4
20260508053037 54 270 2.0 4.0 0.00 0.16 0.00 77 1009.5
20260508052558 54 248 2.0 5.0 0.00 0.16 0.00 77 1009.5
20260508052017 54 248 3.0 8.0 0.00 0.16 0.00 77 1009.7
20260508051517 54 225 3.0 6.0 0.00 0.16 0.00 77 1009.6
20260508051018 54 248 2.0 4.0 0.00 0.16 0.00 77 1009.5
20260508050518 54 225 1.0 3.0 0.00 0.16 0.00 77 1009.6
20260508050017 54 225 1.0 4.0 0.00 0.16 0.00 76 1009.5
20260508045558 54 225 2.0 5.0 0.00 0.16 0.00 76 1009.4
20260508045018 54 225 2.0 4.0 0.00 0.16 0.00 75 1009.3
20260508044617 54 225 2.0 5.0 0.00 0.16 0.00 75 1009.2
20260508044017 54 0.0 3.0 0.00 0.16 0.00 74 1009.1
20260508043517 54 225 1.0 4.0 0.00 0.16 0.00 74 1009.1
20260508043017 54 225 1.0 4.0 0.00 0.16 0.00 74 1009.2
20260508042517 54 225 1.0 3.0 0.00 0.16 0.00 73 1009.3
20260508042017 54 0.0 3.0 0.00 0.16 0.00 73 1009.2
20260508041517 54 0.0 3.0 0.00 0.16 0.00 73 1009.1
20260508041017 54 0.0 3.0 0.00 0.16 0.00 73 1009.2
20260508040518 54 0.0 0.0 0.00 0.16 0.00 73 1009.3
20260508040019 55 203 1.0 3.0 0.00 0.16 0.16 73 1009.2
20260508035515 55 225 1.0 4.0 0.00 0.16 0.16 73 1009.4
20260508035015 55 203 1.0 4.0 0.00 0.16 0.16 72 1009.4
20260508034515 55 248 2.0 4.0 0.00 0.16 0.16 72 1009.4
20260508034015 55 203 1.0 3.0 0.00 0.16 0.16 72 1009.4
20260508033515 55 225 1.0 5.0 0.00 0.16 0.16 72 1009.4
20260508033016 55 225 3.0 5.0 0.00 0.16 0.16 72 1009.4
20260508032515 55 225 2.0 5.0 0.00 0.16 0.16 71 1009.5
20260508032017 55 0.0 3.0 0.00 0.16 0.16 71 1009.6
20260508031517 56 0.0 3.0 0.00 0.16 0.16 71 1009.5
20260508031036 56 0.0 2.0 0.00 0.16 0.16 70 1009.5
20260508030516 56 225 1.0 5.0 0.00 0.16 0.16 70 1009.5
20260508030015 56 225 2.0 6.0 0.00 0.16 0.16 70 1009.4
20260508025515 56 225 2.0 5.0 0.00 0.16 0.16 69 1009.4
20260508025016 56 225 2.0 6.0 0.00 0.16 0.16 69 1009.5
20260508024515 56 225 4.0 10.0 0.00 0.16 0.16 68 1009.5
20260508024016 57 225 4.0 9.0 0.00 0.16 0.16 68 1009.5
20260508023516 57 203 2.0 6.0 0.00 0.16 0.16 67 1009.4
20260508023015 57 225 1.0 4.0 0.00 0.16 0.16 67 1009.4
20260508022515 58 225 2.0 8.0 0.00 0.16 0.16 66 1009.4
20260508022016 58 0.0 3.0 0.00 0.16 0.16 65 1009.4
20260508021515 58 248 1.0 4.0 0.00 0.16 0.16 63 1009.3
20260508021015 59 0.0 0.0 0.00 0.16 0.16 62 1009.3
20260508020555 59 0.0 1.0 0.00 0.16 0.16 60 1009.2
20260508020136 59 225 1.0 6.0 0.00 0.16 0.16 59 1009.2
20260508015515 60 225 1.0 3.0 0.00 0.16 0.16 57 1009.2
20260508015015 60 225 1.0 4.0 0.00 0.16 0.16 55 1009.1
20260508014516 61 0.0 1.0 0.00 0.16 0.16 52 1009.0
20260508014017 61 0.0 3.0 0.00 0.16 0.16 50 1009.0
20260508013515 61 113 1.0 3.0 0.00 0.16 0.16 47 1009.0
20260508013017 62 68 1.0 5.0 0.00 0.16 0.16 42 1009.1
20260508012517 62 45 2.0 5.0 0.00 0.16 0.16 36 1009.1
20260508012018 62 338 2.0 5.0 0.00 0.16 0.16 36 1009.0
20260508011518 62 0 1.0 5.0 0.00 0.16 0.16 37 1009.0
20260508011037 62 23 1.0 6.0 0.00 0.16 0.16 37 1008.9
20260508010538 62 338 1.0 8.0 0.00 0.16 0.16 37 1008.8
20260508010037 62 0 1.0 4.0 0.00 0.16 0.16 37 1008.8
20260508005517 62 0 1.0 5.0 0.00 0.16 0.16 37 1008.6
20260508005037 62 45 1.0 3.0 0.00 0.16 0.16 36 1008.7
20260508004517 62 0.0 3.0 0.00 0.16 0.16 36 1008.6
20260508004017 62 0.0 2.0 0.00 0.16 0.16 36 1008.6
20260508003517 62 338 1.0 4.0 0.00 0.16 0.16 35 1008.6
20260508003037 62 0 2.0 5.0 0.00 0.16 0.16 34 1008.4
20260508002518 62 0 2.0 7.0 0.00 0.16 0.16 34 1008.4
20260508002017 62 45 1.0 4.0 0.00 0.16 0.16 34 1008.3
20260508001538 62 23 2.0 5.0 0.00 0.16 0.16 34 1008.2
20260508001017 63 0 2.0 9.0 0.00 0.16 0.16 34 1008.2
20260508000518 63 45 1.0 6.0 0.00 0.16 0.16 34 1008.2
20260508000018 63 45 1.0 4.0 0.00 0.16 0.16 33 1008.1
20260507235517 63 23 1.0 6.0 0.00 0.16 0.16 33 1008.1
20260507235018 63 45 1.0 6.0 0.00 0.16 0.16 33 1008.1
20260507234518 64 338 2.0 7.0 0.00 0.16 0.16 33 1008.1
20260507234017 64 45 2.0 6.0 0.00 0.16 0.16 33 1008.0
20260507233519 64 338 3.0 8.0 0.00 0.16 0.16 33 1007.9
20260507233037 64 0 2.0 7.0 0.00 0.16 0.16 32 1007.7
20260507232517 65 338 2.0 8.0 0.00 0.16 0.16 33 1007.7
20260507232017 65 338 2.0 6.0 0.00 0.16 0.16 33 1007.8
20260507231517 65 338 2.0 7.0 0.00 0.16 0.16 33 1007.8
20260507231017 65 45 2.0 9.0 0.00 0.16 0.16 32 1007.8
20260507230517 65 23 2.0 5.0 0.00 0.16 0.16 32 1007.8
20260507230017 65 0 2.0 8.0 0.00 0.16 0.16 32 1007.8
20260507225518 65 338 3.0 9.0 0.00 0.16 0.16 32 1007.7
20260507225017 65 338 3.0 6.0 0.00 0.16 0.16 31 1007.7
20260507224517 65 315 2.0 6.0 0.00 0.16 0.16 32 1007.7
20260507224017 65 338 2.0 6.0 0.00 0.16 0.16 31 1007.7
20260507223518 66 315 3.0 9.0 0.00 0.16 0.16 30 1007.7
20260507223017 66 315 3.0 9.0 0.00 0.16 0.16 30 1007.7